Theta_e
321 324 326 327 333 337 340 338 338 340 339 342 339 337 343 347 357 363 355 350 348 355 334 340 345 347 345 342 341 343 345 346 341 341 342 338 330 327 329 324 329 325 326 330 330 328 323 324 324
323 325 324 328 336 339 340 338 339 339 339 337 336 337 339 349 354 355 354 347 349 353 333 338 344 346 342 339 340 343 345 346 342 343 342 337 331 327 327 328 332 332 332 332 328 324 324 325 325
320 323 324 331 336 337 339 338 338 339 337 337 336 336 346 353 355 355 355 349 351 352 338 338 343 344 340 337 339 343 345 345 343 343 340 335 330 326 326 327 332 332 330 323 321 322 325 325 326
319 324 324 330 335 337 337 338 340 339 337 336 336 337 347 354 355 354 353 349 351 351 350 337 341 341 337 335 339 343 344 344 343 342 339 334 329 325 326 324 325 324 321 320 320 323 326 326 326
319 324 330 331 332 335 337 336 337 338 337 336 335 338 347 355 353 353 350 349 348 349 351 338 340 339 336 333 335 339 341 342 341 339 336 332 327 325 326 325 322 322 322 321 321 322 325 326 326
320 322 328 330 331 332 334 336 335 336 336 337 336 336 346 356 352 351 349 347 347 348 353 338 340 338 334 331 334 337 338 337 336 334 332 327 324 325 326 324 323 323 323 322 322 323 324 325 325
320 323 324 327 329 331 333 334 334 334 335 336 338 341 353 355 353 353 350 347 347 349 352 340 340 336 331 330 332 334 334 333 332 331 327 322 323 326 326 324 323 324 323 322 322 323 323 323 323
317 321 323 324 326 329 331 333 331 332 335 334 341 343 349 355 356 354 352 348 348 349 350 349 340 333 329 330 332 333 332 331 329 326 323 322 324 325 325 323 323 324 323 322 321 321 321 322 322
317 320 320 322 324 325 328 332 330 331 332 334 339 337 347 352 356 354 353 350 349 347 350 347 345 343 342 340 332 332 332 329 325 325 323 323 324 324 324 323 325 325 324 323 322 321 320 320 320
319 319 320 322 323 325 326 329 330 332 331 334 338 333 351 357 356 354 353 351 349 347 347 346 344 343 343 344 340 333 333 330 326 324 323 323 337 338 337 334 326 325 325 324 323 322 321 321 322
318 319 320 320 321 323 324 327 328 329 334 334 337 332 345 352 353 351 351 350 348 346 346 345 346 345 344 344 347 343 344 343 338 337 331 326 338 341 340 343 338 327 324 323 328 327 322 325 334
318 318 318 318 319 320 323 325 327 328 332 333 334 331 333 341 347 350 350 349 347 347 346 346 348 348 346 344 347 345 346 346 346 346 344 338 341 342 341 338 339 340 339 339 338 340 340 340 339
319 319 318 317 318 319 321 324 325 327 327 333 333 331 332 332 334 336 342 345 349 347 347 347 350 350 349 347 346 347 346 347 347 348 349 348 347 347 346 344 343 343 343 342 344 344 344 344 346
318 318 318 318 318 318 320 322 323 324 326 331 332 333 333 333 333 333 334 336 343 350 350 350 351 353 351 348 347 348 349 348 348 349 349 351 350 349 349 349 348 347 346 345 345 345 346 347 347
316 318 319 319 318 319 318 319 320 323 326 328 332 332 332 334 334 331 332 333 333 333 348 353 353 354 354 348 347 350 350 349 349 349 350 352 349 350 350 348 348 347 347 348 349 349 349 349 349
317 317 318 319 319 318 318 319 320 319 325 326 328 331 333 332 332 332 330 333 333 328 333 352 352 354 357 355 354 352 352 353 351 351 351 351 352 349 351 349 349 349 351 351 349 349 349 349 348
318 317 317 317 319 318 319 318 320 320 321 325 327 329 331 333 332 330 330 330 330 331 329 343 354 355 356 358 357 355 355 355 353 353 353 352 352 352 350 350 349 352 352 351 349 346 345 344 344
319 318 317 318 319 318 318 318 319 319 321 324 326 327 329 333 332 332 330 329 330 328 327 320 347 352 355 356 357 356 354 354 353 352 352 351 353 351 351 348 350 351 349 349 346 346 345 344 344
318 319 320 319 319 318 318 318 319 319 320 321 324 327 328 330 332 331 328 324 329 328 325 318 318 334 352 353 352 351 350 350 349 349 350 349 354 352 346 347 352 348 348 345 344 345 344 341 337
318 319 321 320 320 320 319 319 319 319 320 320 323 325 325 328 328 331 331 331 329 328 326 321 319 331 346 350 349 344 344 344 345 345 350 348 350 350 350 351 348 348 344 340 339 336 336 333 331
318 319 320 320 320 321 320 320 320 319 319 319 321 321 321 324 327 330 331 329 327 327 325 321 320 321 324 329 347 349 349 346 347 346 349 351 351 352 352 351 347 341 337 333 330 329 328 331 326
318 319 319 320 321 320 321 320 320 320 321 321 321 321 323 327 327 330 332 329 329 324 326 324 320 319 321 323 328 346 347 345 343 343 344 349 350 352 352 345 338 323 328 330 329 330 324 326 325
318 320 320 320 320 321 322 321 323 322 321 322 323 324 325 324 326 331 331 330 323 325 325 323 321 319 319 321 338 342 341 342 344 344 345 348 343 341 335 333 330 326 321 324 323 325 327 325 325
319 320 321 321 320 321 321 323 324 324 325 324 324 324 323 323 330 331 325 325 323 323 322 327 340 340 341 339 340 346 344 341 337 336 333 332 331 331 324 327 328 328 328 325 326 325 318 315 320
320 321 321 321 321 320 321 323 326 327 326 326 326 326 325 324 324 325 325 323 326 326 329 333 339 342 343 341 340 339 337 334 331 332 329 327 326 325 325 326 327 329 330 329 328 329 325 326 326
321 321 321 323 321 320 320 322 326 325 323 326 326 326 325 325 325 326 327 328 329 330 330 333 334 331 332 332 331 329 323 328 328 329 328 329 329 328 327 326 329 332 333 333 331 331 329 328 328
322 321 322 322 325 325 323 325 326 326 327 327 326 326 326 325 325 325 325 325 326 326 326 326 325 325 325 325 325 321 320 320 320 321 319 318 321 323 325 326 325 326 327 327 327 330 330 329 329
321 323 323 324 329 330 326 325 325 327 327 327 328 326 325 324 323 322 321 321 321 321 321 321 321 321 320 319 318 319 318 318 317 316 316 316 316 316 316 316 316 316 316 318 324 327 327 328 328
320 323 325 326 325 327 328 328 327 327 327 328 327 325 324 322 321 321 320 319 319 319 319 318 317 317 317 317 315 315 315 315 315 315 315 315 314 314 313 314 314 317 318 319 319 320 323 326 327
321 323 325 333 329 327 329 330 325 326 327 327 326 324 323 321 320 320 319 318 318 317 317 316 315 315 315 314 314 313 313 313 312 311 310 309 310 310 312 314 315 316 316 315 315 317 318 320 324
Wind_Speed
10 9 10 12 8 8 18 19 20 2 2 4 4 8 16 9 16 6 13 11 20 21 24 23 22 23 22 20 18 18 19 19 16 14 10 8 8 11 13 13 12 12 12 10 8 7 7 8 8
8 10 12 14 11 15 15 20 14 11 7 3 10 10 9 4 14 11 16 17 22 21 24 23 23 22 21 19 17 18 20 20 16 13 10 8 8 11 12 12 13 12 11 9 7 7 7 7 6
13 8 14 11 15 18 18 17 16 9 11 7 9 6 5 7 6 12 11 21 22 22 22 23 22 22 20 19 18 19 20 19 16 14 11 9 9 11 12 12 12 11 9 7 6 7 6 5 5
11 14 16 14 23 23 25 18 13 4 6 13 7 7 5 5 3 8 18 23 21 20 22 22 21 20 20 19 19 20 20 18 16 15 12 10 10 12 13 12 11 10 8 7 7 7 6 5 5
19 19 15 19 25 26 20 24 9 10 14 8 10 12 3 6 6 13 20 22 20 20 19 23 22 20 18 19 19 20 19 18 16 14 12 10 11 13 14 12 11 10 8 7 7 7 7 6 5
19 23 18 22 26 24 23 16 16 14 18 12 11 14 3 13 13 14 19 20 20 21 19 23 23 21 19 19 20 20 19 18 16 14 12 11 12 14 14 13 12 10 9 8 7 7 7 6 6
22 16 23 25 25 25 22 22 12 13 18 12 14 12 13 13 17 16 17 18 19 19 18 24 24 23 21 20 19 18 18 17 15 14 13 12 14 15 15 14 12 10 8 8 7 7 7 7 7
27 16 27 25 23 27 21 18 13 21 18 5 5 8 2 19 24 21 18 18 18 18 17 20 22 22 22 21 20 19 17 16 15 14 13 14 15 15 15 13 12 11 10 9 9 8 9 9 9
25 17 22 29 27 23 27 13 16 24 16 7 3 6 8 7 18 15 17 18 18 18 17 18 19 19 19 19 21 19 17 16 15 15 15 15 15 15 15 14 14 12 11 10 10 10 10 10 11
21 19 29 23 24 21 27 21 14 19 17 11 9 3 2 7 13 13 15 18 19 19 18 18 18 19 19 16 19 21 19 17 17 16 16 16 14 13 13 12 13 13 13 12 12 11 12 12 11
25 24 21 26 31 25 27 21 15 25 21 22 14 5 2 4 6 9 12 16 19 18 18 19 19 19 19 16 16 17 15 15 16 16 17 16 14 13 14 12 16 17 15 15 12 14 15 12 10
24 28 27 27 26 27 21 22 24 25 25 23 14 8 8 7 3 4 6 3 17 18 19 20 20 20 21 17 16 16 16 16 15 17 18 17 17 16 14 14 12 12 11 10 11 11 12 13 14
21 22 23 25 30 28 19 25 24 28 30 15 19 13 12 13 7 4 11 10 8 20 21 22 21 22 23 21 17 16 17 16 16 16 18 17 16 15 14 13 13 13 11 13 13 13 14 15 15
23 21 22 24 24 29 23 24 29 33 33 22 23 19 15 13 10 1 4 9 14 13 23 22 22 22 21 24 20 18 17 17 17 16 17 20 17 17 14 14 14 14 14 14 14 14 15 15 15
20 20 17 21 23 21 28 27 32 29 31 32 20 26 23 14 18 4 8 9 15 15 35 16 17 19 21 22 25 19 18 18 17 17 18 18 21 17 16 14 14 13 14 15 14 14 15 15 14
16 20 19 20 21 23 22 28 27 38 36 37 30 26 30 23 21 19 11 16 18 16 12 6 13 17 19 19 19 19 18 17 18 17 18 20 19 20 16 16 15 14 14 13 14 14 14 14 16
17 17 22 20 20 20 25 31 25 32 35 31 37 28 32 24 22 26 20 16 19 15 11 9 11 16 19 19 18 18 18 18 17 17 18 19 18 18 19 16 14 15 13 14 13 13 14 15 16
17 19 16 19 18 22 26 27 25 34 31 36 36 34 31 34 27 32 33 21 19 17 15 10 10 14 16 17 17 17 17 18 19 19 19 20 18 19 23 21 19 19 17 11 13 16 13 15 15
17 14 19 14 17 19 22 25 23 28 30 38 35 31 32 35 29 31 30 27 24 19 15 14 13 16 16 17 16 16 19 18 18 18 19 23 19 21 22 20 11 17 13 14 14 14 15 16 15
19 16 14 14 13 18 21 24 23 24 27 39 29 28 33 32 34 30 36 31 23 19 18 17 19 11 14 15 17 16 16 17 17 17 19 24 19 18 19 18 15 14 14 16 18 16 14 14 14
19 19 15 16 11 14 17 23 20 22 30 38 36 35 42 33 35 31 41 42 33 24 11 9 20 28 19 13 14 13 13 15 15 16 16 19 20 19 18 15 18 16 18 13 19 17 14 13 13
20 18 16 17 16 14 6 13 21 24 24 26 32 34 28 28 29 35 40 45 34 17 19 28 19 21 27 22 22 20 15 13 13 14 15 15 14 14 16 19 16 20 15 13 15 18 17 15 14
18 17 19 16 17 18 7 6 22 12 23 25 19 27 29 25 19 33 38 31 18 11 13 26 33 30 32 37 25 19 17 13 11 12 17 20 17 15 14 15 15 17 17 16 21 20 19 16 15
20 17 15 15 15 15 21 7 9 7 13 18 21 19 4 13 8 23 19 22 16 15 20 26 23 22 24 27 22 16 15 13 13 13 11 9 11 12 14 14 16 17 19 21 21 23 23 25 22
19 16 12 13 14 15 19 15 8 5 11 18 17 9 5 5 7 7 14 14 16 16 20 17 15 14 15 14 13 14 19 21 16 10 8 11 12 12 13 16 19 19 21 22 24 24 26 27 26
20 20 15 20 13 15 17 12 10 18 16 15 15 14 12 12 13 15 16 20 19 18 17 16 14 10 10 11 10 15 12 7 6 8 11 9 10 12 18 21 17 16 18 23 25 27 29 29 31
18 20 23 18 12 7 9 14 11 14 16 16 19 18 16 16 16 17 16 18 17 17 17 17 13 13 9 8 6 5 8 9 11 13 15 14 15 17 15 20 21 25 26 29 31 31 35 36 36
17 15 13 12 9 11 7 7 5 21 19 18 16 19 18 18 18 17 17 17 16 15 15 13 11 9 6 5 4 2 3 7 12 16 19 21 24 26 30 32 33 35 37 37 34 35 37 40 44
18 11 11 16 8 11 6 5 8 12 20 19 18 20 19 17 16 16 15 15 14 13 11 9 8 7 6 5 4 6 10 14 16 20 22 25 28 29 30 30 32 31 31 33 35 37 40 43 45
18 11 13 10 7 10 10 4 10 18 18 18 21 20 18 17 16 15 13 12 10 10 9 8 8 8 9 10 11 14 16 19 21 24 26 27 29 29 29 29 29 30 30 32 35 36 38 40 40
Wind_Direction
254 298 287 267 249 232 254 243 251 139 216 185 328 277 331 11 34 75 138 145 151 157 162 168 169 168 170 175 181 188 185 179 172 162 150 139 145 155 158 155 150 150 155 158 152 143 136 131 130
231 264 261 264 245 250 239 242 239 242 258 65 276 253 257 355 75 124 128 155 153 155 162 169 170 170 171 174 180 186 183 180 174 169 163 162 162 165 164 160 155 157 160 165 162 152 143 135 132
231 250 266 235 238 245 256 228 233 198 236 262 275 249 305 41 83 148 164 157 157 153 160 169 170 171 171 171 177 182 181 180 178 178 178 178 176 176 173 169 165 166 175 177 170 158 147 137 135
225 234 244 255 244 233 252 270 315 278 247 238 262 284 126 52 134 162 152 154 156 156 159 165 169 173 173 170 175 179 181 183 185 188 189 189 188 184 179 177 176 180 183 184 179 170 162 159 160
220 244 233 235 238 256 252 249 174 238 256 228 220 253 159 121 127 146 149 156 154 158 166 168 168 172 175 173 174 179 182 186 192 195 198 204 197 189 184 184 183 185 188 194 192 188 185 186 191
217 228 241 237 240 233 251 260 261 264 270 255 255 244 226 136 139 149 154 158 159 161 171 172 172 173 177 178 178 181 185 190 195 199 205 210 200 192 189 189 192 196 198 202 203 207 210 213 217
232 224 235 243 249 240 222 245 243 272 259 261 295 247 126 157 155 156 160 161 165 164 164 173 176 177 178 178 180 184 188 193 197 204 209 201 197 194 195 195 201 203 209 215 218 224 231 235 240
227 245 244 240 247 248 235 174 218 256 265 354 287 245 26 171 159 157 162 167 169 167 170 168 176 180 179 180 182 186 189 193 200 204 204 196 195 198 201 203 208 212 219 224 228 235 243 249 252
220 241 239 241 238 248 253 199 216 229 254 234 202 327 285 273 130 153 159 173 174 173 177 173 174 178 177 185 185 187 190 193 196 199 198 195 198 203 208 210 215 222 229 234 239 246 254 259 264
223 229 238 242 252 257 256 250 220 232 205 205 206 14 253 131 148 170 171 182 183 181 181 181 178 181 178 186 194 191 195 196 197 199 199 196 191 208 203 228 232 234 237 243 249 254 257 262 269
214 241 242 242 258 254 266 245 226 235 208 218 208 123 122 103 174 183 193 192 192 189 187 187 180 185 180 186 196 190 195 197 201 202 208 193 201 207 210 219 245 239 240 251 260 268 260 263 253
228 236 241 258 259 246 263 269 254 241 243 229 174 167 107 130 270 268 246 204 190 192 192 190 188 188 182 189 198 195 196 199 202 206 211 199 192 207 207 215 226 246 238 255 230 244 253 248 251
237 246 244 244 247 252 250 244 252 254 247 210 191 174 143 123 105 53 272 271 277 195 196 192 192 193 190 187 200 199 201 207 206 210 214 204 208 210 216 214 219 229 235 238 242 244 246 253 263
235 243 248 255 235 241 243 239 241 243 247 213 201 201 199 193 135 314 327 289 273 245 198 190 190 198 194 193 194 203 208 212 208 213 216 214 213 218 216 222 226 229 233 237 244 250 253 261 266
249 258 231 240 249 236 237 239 244 244 242 243 223 218 214 205 203 173 302 297 286 262 270 184 198 202 200 205 200 205 210 210 219 215 218 223 217 218 220 225 229 231 234 236 242 248 255 264 269
242 238 246 234 231 238 252 249 232 239 236 243 241 226 237 200 210 196 285 296 306 313 317 229 214 213 215 211 212 209 213 221 218 222 223 222 225 216 232 226 228 229 229 238 250 255 260 267 274
228 235 231 246 236 220 226 247 252 248 228 240 239 236 236 217 222 201 227 289 310 318 315 246 232 224 218 220 216 220 220 221 226 225 227 228 224 227 220 228 227 227 234 243 252 259 261 266 267
229 220 238 255 220 234 237 243 244 247 245 242 231 241 238 228 222 212 193 261 296 303 306 289 227 227 220 224 223 223 228 231 231 231 231 236 223 223 226 218 216 228 238 236 247 259 255 259 269
266 241 240 242 251 241 246 239 249 239 238 244 241 230 231 236 215 212 198 206 274 296 303 322 279 230 223 221 225 227 229 231 233 231 230 232 216 226 229 226 238 252 243 237 239 247 264 273 278
242 251 255 259 252 246 247 246 243 246 236 242 233 239 242 235 241 212 209 230 248 262 301 288 306 266 219 227 226 230 236 235 235 231 228 237 223 218 224 228 227 233 235 247 252 254 262 268 273
224 238 244 260 260 270 257 263 238 233 240 237 225 230 241 232 238 222 207 211 237 259 275 255 266 269 268 243 232 231 222 227 221 223 226 227 221 219 220 228 224 229 239 240 271 276 266 265 271
219 220 247 262 271 266 292 278 226 230 229 229 230 226 229 233 239 227 203 202 221 234 225 272 283 246 256 255 253 234 208 218 226 222 224 228 225 219 219 223 231 239 239 252 241 254 251 250 266
230 224 219 233 254 268 240 232 281 252 218 218 208 219 221 231 243 217 206 195 195 208 210 244 267 257 239 231 226 239 223 227 223 218 220 214 225 211 219 232 235 248 256 245 244 238 245 252 260
219 237 249 232 237 248 255 183 249 252 297 217 194 203 225 249 190 166 170 182 175 181 211 238 232 229 218 226 207 216 234 218 210 204 216 219 227 243 239 235 248 247 249 254 247 261 265 266 260
216 222 224 227 231 238 252 197 146 127 312 240 116 122 145 159 154 175 171 167 182 187 194 201 198 190 184 176 178 191 193 190 189 181 217 229 234 241 255 267 265 254 263 265 255 258 263 263 264
208 215 225 215 220 228 213 261 143 166 215 111 107 114 118 113 116 114 120 129 134 142 156 162 159 157 156 160 162 186 173 173 177 211 208 222 239 250 250 251 244 251 260 261 261 267 266 262 262
205 217 234 255 304 252 267 152 152 146 146 133 127 121 117 113 113 109 107 111 122 127 126 130 132 133 133 136 129 174 196 213 225 234 250 263 261 263 273 265 262 267 271 271 263 262 263 261 259
240 245 247 242 199 276 225 312 166 163 154 138 134 125 123 121 117 115 114 114 115 110 108 114 119 113 107 109 136 259 285 276 280 285 285 285 283 283 282 283 282 280 277 274 269 268 266 264 261
223 182 253 265 290 252 149 232 256 266 149 146 135 133 134 129 121 113 107 102 101 100 93 85 79 68 48 27 332 305 299 294 293 292 291 289 288 288 286 284 283 279 275 273 271 266 263 261 260
253 276 192 234 252 278 292 140 141 299 135 131 132 133 130 125 121 115 109 101 93 85 77 42 33 26 8 354 339 323 311 306 298 294 292 291 290 289 287 283 278 274 273 272 269 270 268 266 267